Tracking 28790 objects as of 19-Apr-2024
HD Live streaming from Space Station
objects crossing your sky now

CZ-4C DEB

Track CZ-4C DEB now!
10-day predictions


NORAD ID: 54702
Int'l Code: 2022-169D
Perigee: 791.8 km
Apogee: 804.1 km
Inclination: 60.0 °
Period: 100.7 minutes
Semi major axis: 7168 km
RCS: Unknown
Launch date: December 12, 2022
Source: People's Republic of China (PRC)
Launch site: Jiuquan Satellite Launch Center, China (JSC)

Note: This is SATELLITE DEBRIS
Your satellite tracking list
Your tracking list is empty




NASA's NSSDC Master Catalog

Two Line Element Set (TLE):
1 54702U 22169D   24109.85657934  .00001854  00000-0  76447-3 0  9990
2 54702  59.9984 325.8369 0008569 350.7457   9.3419 14.30263836 70570
Source of the keplerian elements: AFSPC